[[{"header":{"parameterUnit":"m.s-1","parameterCategory":2,"la1":30.2991,"la2":30.254,"lo1":-89.0895,"lo2":-89.0444,"dy":0.0017,"dx":0.0017,"nx":28,"ny":28,"refTime":"2025-07-09T09:00:00:Z","depth":"0","parameterNumber":2,"parameterNumberName":"U-component_of_CURRENTS"},"data":[0,0,0,0,0,0,0,0,0,0,0,0,0,0,0,0,0,0,0,0,0,0,0,0,0,0,0,0,0,0,0,0,0,0,0,0,0,0,0,0,0,0,0,0,0,0,0,0,0,0,0,0,0,0,0,0,0,0,-0.2164,-0.2164,0,-0.2147,-0.2146,-0.2146,-0.2064,-0.2062,-0.206,-0.2059,-0.1968,-0.1967,-0.1966,0,0,0,0,0,0,0,0,0,0,0,0,0,-0.2045,-0.2048,-0.2164,-0.2164,-0.2164,-0.2147,-0.2146,-0.2146,-0.2064,-0.2062,-0.206,-0.2058,-0.1968,-0.1967,-0.1966,0,0,0,0,0,0,0,0,0,0,0,0,0,-0.2067,-0.2049,-0.2164,-0.2124,-0.212,-0.2147,-0.2146,-0.2145,-0.2064,-0.2062,-0.206,-0.2057,-0.1968,-0.1967,-0.1966,-0.2007,0,0,-0.1962,-0.1961,0,0,0,0,0,0,0,0,-0.2066,-0.2071,-0.2129,-0.2126,-0.2123,-0.2107,-0.2071,-0.2097,-0.2065,-0.2082,-0.2059,-0.2056,-0.2012,-0.2007,-0.2005,-0.2003,-0.1999,-0.1962,-0.1961,-0.196,-0.196,0,0,0,0,0,0,0,-0.2064,-0.2071,-0.2154,-0.213,-0.2126,-0.2079,-0.2079,-0.2075,-0.2057,-0.2081,-0.2075,-0.2079,-0.2008,-0.2007,-0.2002,-0.1998,-0.1962,-0.196,-0.196,-0.1959,-0.2016,-0.2018,0,0,0,0,0,0,-0.2081,-0.2071,-0.2155,-0.2154,-0.2091,-0.2083,-0.2084,-0.2112,-0.2059,-0.205,-0.2081,-0.2076,-0.201,-0.2004,-0.1999,-0.2014,-0.196,-0.1959,-0.1958,-0.2014,-0.2017,-0.2019,0,0,0,0,0,0,-0.2079,-0.2089,-0.2155,-0.2112,-0.2117,-0.2089,-0.2121,-0.2113,-0.2101,-0.2061,-0.2049,-0.2076,-0.2008,-0.2001,-0.1999,-0.2011,-0.1958,-0.1957,-0.2011,-0.2015,-0.2018,-0.2064,0,0,0,0,0,0,-0.2076,-0.209,-0.2107,-0.2114,-0.2121,-0.2168,-0.2123,-0.2115,-0.211,-0.2101,-0.2053,-0.2042,-0.2006,-0.2002,-0.1998,-0.2008,-0.1956,-0.2008,-0.2013,-0.2017,-0.206,-0.2069,-0.2077,0,0,0,0,0,-0.2072,-0.2108,-0.2109,-0.2119,-0.215,-0.217,-0.2168,-0.2136,-0.2112,-0.2114,-0.2088,-0.2043,-0.2026,-0.2003,-0.1998,-0.2007,-0.2006,-0.2011,-0.2016,-0.2056,-0.2067,-0.2076,0,0,0,0,0,0,-0.2052,-0.2104,-0.2105,-0.2151,-0.2159,-0.2156,-0.2157,-0.2145,-0.2129,-0.2114,-0.2071,-0.206,-0.2071,-0.2046,-0.2021,-0.2043,-0.201,-0.2015,-0.2042,-0.2052,-0.2061,-0.2061,-0.1955,0,0,0,0,0,-0.2066,-0.2104,-0.2137,-0.2164,-0.2179,-0.2172,-0.2173,-0.2158,-0.215,-0.2139,-0.2111,-0.2091,-0.2095,-0.2076,-0.2077,-0.2082,-0.2073,-0.209,-0.2098,-0.2105,-0.2107,-0.2118,-0.2126,-0.2036,-0.2036,-0.2036,0,0,-0.2053,-0.2093,-0.2106,-0.2162,-0.2165,-0.2182,-0.2165,-0.2174,-0.2173,-0.2135,-0.2123,-0.2127,-0.2111,-0.2121,-0.2121,-0.209,-0.2131,-0.2112,-0.2117,-0.2115,-0.2124,-0.2132,-0.214,-0.204,-0.2039,-0.2039,0,0,-0.2057,-0.21,-0.2134,-0.2153,-0.2182,-0.2186,-0.2194,-0.2203,-0.2193,-0.22,-0.2183,-0.2207,-0.218,-0.2187,-0.2184,-0.2248,-0.219,-0.2234,-0.225,-0.2261,-0.2268,-0.2274,-0.2284,-0.229,-0.2218,-0.2218,-0.2218,0,-0.2042,-0.2093,-0.2137,-0.2173,-0.2178,-0.2191,-0.2204,-0.2212,-0.2211,-0.2211,-0.2197,-0.2217,-0.222,-0.224,-0.2266,-0.2266,-0.2247,-0.2204,-0.2269,-0.2275,-0.2279,-0.2288,-0.2294,-0.2221,-0.222,-0.222,-0.222,0,-0.2061,-0.2101,-0.2121,-0.2173,-0.2189,-0.2202,-0.2227,-0.2235,-0.223,-0.2233,-0.226,-0.2282,-0.2284,-0.2304,-0.23,-0.234,-0.2309,-0.2291,-0.2234,-0.2291,-0.2297,-0.2303,-0.2225,-0.2224,-0.2223,-0.2222,0,0,-0.2032,-0.2119,-0.2122,-0.2131,-0.2186,-0.2189,-0.2217,-0.2237,-0.2229,-0.226,-0.2258,-0.2323,-0.2332,-0.2335,-0.2346,-0.2366,-0.2415,-0.2334,-0.2333,-0.2328,-0.2419,-0.2264,-0.2255,-0.2381,-0.2382,-0.2383,-0.2412,0,-0.2025,-0.2079,-0.2126,-0.2136,-0.2157,-0.2185,-0.2196,-0.2214,-0.2228,-0.2234,-0.229,-0.2298,-0.234,-0.2336,-0.2377,-0.2404,-0.2428,-0.2408,-0.2379,-0.2379,-0.222,-0.2256,-0.2032,-0.2026,-0.2417,-0.2418,-0.2419,0,-0.2025,-0.206,-0.2088,-0.2111,-0.2119,-0.2125,-0.2128,-0.2139,-0.2178,-0.2189,-0.2232,-0.2255,-0.2328,-0.2338,-0.2422,-0.2391,-0.2416,-0.2438,-0.2439,-0.2277,-0.2233,-0.2034,-0.2021,-0.1941,-0.2427,-0.2426,-0.2425,0,-0.1965,-0.2021,-0.2034,-0.2044,-0.2086,-0.2087,-0.2091,-0.2122,-0.2124,-0.2158,-0.216,-0.2235,-0.226,-0.232,-0.2396,-0.2392,-0.2462,-0.2459,-0.2351,-0.2341,-0.2139,-0.2107,-0.2026,-0.2511,-0.2511,-0.2511,-0.2511,0,-0.1944,-0.1944,-0.2003,-0.2004,-0.1992,-0.2029,-0.2011,-0.2033,-0.2059,-0.2058,-0.2127,-0.2138,-0.225,-0.2303,-0.2375,-0.2372,-0.2449,-0.2357,-0.2334,-0.2149,-0.212,-0.2029,-0.212,-0.2512,-0.2512,-0.2512,-0.2512,0,-0.1887,-0.1932,-0.194,-0.1971,-0.1975,-0.1959,-0.1966,-0.1954,-0.1982,-0.1987,-0.1995,-0.2069,-0.2119,-0.2221,-0.2312,-0.2312,-0.2284,-0.2328,-0.2103,-0.205,-0.1822,-0.1926,-0.194,-0.1891,-0.2192,-0.2188,-0.2185,0,-0.1866,-0.1872,-0.1902,-0.1899,-0.1916,-0.1902,-0.1897,-0.192,-0.1914,-0.194,-0.194,-0.1981,-0.2,-0.2064,-0.205,-0.2092,-0.2166,-0.1904,-0.1861,-0.1767,-0.1869,-0.1967,-0.1934,-0.1635,-0.1628,-0.1622,-0.1617,0,-0.1812,-0.1829,-0.1835,-0.1837,-0.1835,-0.1826,-0.1818,-0.181,-0.1833,-0.1837,-0.1841,-0.1849,-0.1832,-0.1737,-0.174,-0.1746,-0.1798,-0.1775,-0.1737,-0.1472,-0.152,-0.147,-0.1682,-0.1563,-0.1568,-0.1572,-0.1575,-0.1577,-0.1758,-0.1752,-0.1764,-0.1752,-0.1754,-0.1744,-0.1697,-0.1715,-0.17,-0.1677,-0.1736,-0.1686,-0.1527,-0.1461,-0.1412,-0.1159,-0.1436,-0.1112,-0.1266,-0.1385,-0.127,-0.1353,-0.1162,-0.1165,-0.1168,-0.117,-0.1172,0,-0.1679,-0.1681,-0.1671,-0.1652,-0.1613,-0.1648,-0.163,-0.1573,-0.1538,-0.1536,-0.1523,-0.136,-0.1159,-0.1004,-0.073,-0.0659,-0.0673,-0.0687,-0.0769,-0.0776,-0.0842,-0.0735,-0.0367,-0.0368,-0.0368,-0.0368,-0.0368,-0.0368,-0.1634,-0.1603,-0.1599,-0.1514,-0.1492,-0.1402,-0.1376,-0.1341,-0.1301,-0.1199,-0.11,-0.1062,-0.0887,-0.0771,-0.048,-0.0408,-0.048,-0.048,-0.0644,-0.0656,-0.0707,-0.0755,-0.0664,-0.0288,-0.0288,-0.0397,-0.0399,-0.04]},{"header":{"parameterUnit":"m.s-1","parameterCategory":2,"la1":30.2991,"la2":30.254,"lo1":-89.0895,"lo2":-89.0444,"dy":0.0017,"dx":0.0017,"nx":28,"ny":28,"refTime":"2025-07-09T09:00:00:Z","depth":"0","parameterNumber":3,"parameterNumberName":"V-component_of_CURRENTS"},"data":[0,0,0,0,0,0,0,0,0,0,0,0,0,0,0,0,0,0,0,0,0,0,0,0,0,0,0,0,0,0,0,0,0,0,0,0,0,0,0,0,0,0,0,0,0,0,0,0,0,0,0,0,0,0,0,0,0,0,-0.0625,-0.0625,0,-0.0656,-0.0656,-0.0657,-0.0623,-0.0622,-0.062,-0.0619,-0.0564,-0.0564,-0.0563,0,0,0,0,0,0,0,0,0,0,0,0,0,-0.0393,-0.0399,-0.0625,-0.0626,-0.0626,-0.0656,-0.0656,-0.0657,-0.0623,-0.0621,-0.062,-0.0619,-0.0564,-0.0564,-0.0563,0,0,0,0,0,0,0,0,0,0,0,0,0,-0.0464,-0.04,-0.0625,-0.0615,-0.0614,-0.0656,-0.0656,-0.0657,-0.0623,-0.0621,-0.062,-0.0618,-0.0565,-0.0564,-0.0563,-0.059,0,0,-0.0561,-0.0561,0,0,0,0,0,0,0,0,-0.046,-0.0472,-0.0616,-0.0616,-0.0615,-0.0636,-0.0555,-0.0631,-0.0623,-0.0617,-0.0619,-0.0618,-0.0583,-0.0581,-0.0588,-0.0588,-0.0585,-0.0561,-0.056,-0.056,-0.056,0,0,0,0,0,0,0,-0.0456,-0.047,-0.0635,-0.0617,-0.0616,-0.056,-0.057,-0.0568,-0.0605,-0.0617,-0.0616,-0.0624,-0.0582,-0.0589,-0.0586,-0.0585,-0.0561,-0.056,-0.056,-0.0559,-0.0591,-0.0592,0,0,0,0,0,0,-0.0468,-0.0467,-0.0634,-0.0636,-0.0535,-0.0567,-0.0577,-0.0629,-0.0607,-0.0603,-0.0625,-0.0622,-0.0591,-0.0587,-0.0584,-0.0625,-0.056,-0.0559,-0.0559,-0.0589,-0.0591,-0.0592,0,0,0,0,0,0,-0.0464,-0.0484,-0.0632,-0.055,-0.0566,-0.0574,-0.0631,-0.063,-0.0632,-0.0614,-0.0608,-0.0628,-0.0589,-0.0585,-0.0588,-0.0621,-0.0559,-0.0558,-0.0588,-0.059,-0.0592,-0.07,0,0,0,0,0,0,-0.0458,-0.0484,-0.0512,-0.0554,-0.0571,-0.0664,-0.0633,-0.0632,-0.0642,-0.0638,-0.0615,-0.0608,-0.0588,-0.059,-0.0587,-0.0619,-0.0558,-0.0586,-0.0589,-0.0591,-0.0695,-0.0705,-0.0714,0,0,0,0,0,-0.045,-0.0506,-0.0515,-0.0533,-0.0617,-0.0665,-0.0669,-0.0664,-0.0643,-0.0656,-0.0639,-0.0609,-0.0602,-0.0591,-0.0588,-0.062,-0.0585,-0.0588,-0.0591,-0.069,-0.0703,-0.0714,0,0,0,0,0,0,-0.0415,-0.051,-0.0519,-0.06,-0.063,-0.066,-0.0678,-0.067,-0.0669,-0.0661,-0.0629,-0.0623,-0.0636,-0.0613,-0.06,-0.0634,-0.0587,-0.059,-0.0664,-0.0676,-0.0686,-0.0743,-0.0557,0,0,0,0,0,-0.0426,-0.0487,-0.0556,-0.0607,-0.0642,-0.0658,-0.0671,-0.0672,-0.0682,-0.068,-0.0664,-0.0649,-0.065,-0.0649,-0.064,-0.0665,-0.0666,-0.0681,-0.0691,-0.07,-0.0744,-0.0787,-0.0806,-0.0602,-0.0602,-0.0601,0,0,-0.041,-0.0477,-0.0502,-0.0601,-0.063,-0.0699,-0.0662,-0.07,-0.074,-0.0675,-0.0713,-0.0681,-0.0662,-0.0688,-0.0692,-0.0672,-0.0749,-0.0703,-0.0711,-0.0752,-0.0792,-0.0812,-0.083,-0.0603,-0.0603,-0.0603,0,0,-0.0438,-0.0495,-0.0569,-0.062,-0.0687,-0.0709,-0.0725,-0.0767,-0.0775,-0.0804,-0.0769,-0.0775,-0.0759,-0.0775,-0.0775,-0.0839,-0.0796,-0.0806,-0.0911,-0.0952,-0.097,-0.0986,-0.0977,-0.0992,-0.0816,-0.0816,-0.0816,0,-0.042,-0.0542,-0.0583,-0.0681,-0.0731,-0.0726,-0.0811,-0.083,-0.0851,-0.0878,-0.0827,-0.085,-0.082,-0.0889,-0.0901,-0.0868,-0.0856,-0.0868,-0.0968,-0.0984,-0.0999,-0.0987,-0.1002,-0.0822,-0.0821,-0.082,-0.082,0,-0.0504,-0.0613,-0.0664,-0.0796,-0.0843,-0.091,-0.0964,-0.0993,-0.0985,-0.1001,-0.1046,-0.1014,-0.1033,-0.1013,-0.0975,-0.1063,-0.1006,-0.0972,-0.0946,-0.1027,-0.1007,-0.1021,-0.083,-0.0828,-0.0826,-0.0825,0,0,-0.0479,-0.0685,-0.0709,-0.0806,-0.0918,-0.0973,-0.1056,-0.1144,-0.1198,-0.1198,-0.1271,-0.1273,-0.1241,-0.1241,-0.1191,-0.1224,-0.1289,-0.1143,-0.1142,-0.1148,-0.134,-0.1162,-0.1158,-0.1262,-0.1266,-0.1269,-0.1271,0,-0.0546,-0.0725,-0.0823,-0.0991,-0.1094,-0.1153,-0.1231,-0.1293,-0.1313,-0.137,-0.1369,-0.1397,-0.1332,-0.1321,-0.1357,-0.1301,-0.1335,-0.129,-0.125,-0.1249,-0.1094,-0.1173,-0.103,-0.1009,-0.1284,-0.1286,-0.1288,0,-0.0626,-0.074,-0.0896,-0.112,-0.1174,-0.1258,-0.1385,-0.1461,-0.1537,-0.1548,-0.1593,-0.1563,-0.1617,-0.1527,-0.1551,-0.1514,-0.1455,-0.141,-0.1409,-0.1229,-0.1099,-0.0978,-0.1023,-0.0778,-0.1308,-0.1307,-0.1305,0,-0.0573,-0.0826,-0.094,-0.1008,-0.1215,-0.1303,-0.1407,-0.1501,-0.1569,-0.1654,-0.1676,-0.1736,-0.1729,-0.1723,-0.1613,-0.1589,-0.1603,-0.1557,-0.1357,-0.1341,-0.1209,-0.1175,-0.1033,-0.1605,-0.1605,-0.1605,-0.1605,0,-0.0631,-0.0756,-0.0929,-0.0997,-0.1145,-0.13,-0.1446,-0.1533,-0.165,-0.1729,-0.1757,-0.1794,-0.1774,-0.1753,-0.1679,-0.1545,-0.1662,-0.1406,-0.1351,-0.1232,-0.1201,-0.0971,-0.0902,-0.1605,-0.1605,-0.1605,-0.1605,0,-0.0604,-0.0704,-0.0856,-0.1057,-0.1126,-0.1223,-0.1466,-0.1563,-0.1664,-0.176,-0.1785,-0.1843,-0.1822,-0.1766,-0.1724,-0.1588,-0.1347,-0.1425,-0.1253,-0.1177,-0.0734,-0.0677,-0.0584,-0.0455,-0.1228,-0.1224,-0.122,0,-0.0625,-0.068,-0.0842,-0.0896,-0.1006,-0.1182,-0.1297,-0.151,-0.1617,-0.1775,-0.1812,-0.183,-0.1833,-0.1694,-0.149,-0.1339,-0.1208,-0.1057,-0.1,-0.0709,-0.0609,-0.0603,-0.0502,-0.0861,-0.0855,-0.085,-0.0846,0,-0.066,-0.067,-0.0768,-0.0841,-0.0965,-0.1122,-0.1323,-0.1421,-0.1649,-0.1737,-0.1842,-0.1865,-0.1715,-0.1493,-0.1235,-0.11,-0.0836,-0.0943,-0.0723,-0.0386,-0.0301,-0.0145,-0.0825,-0.0801,-0.0806,-0.0809,-0.0811,-0.0813,-0.0658,-0.0694,-0.0753,-0.0841,-0.0938,-0.1061,-0.1176,-0.1387,-0.1556,-0.1718,-0.1795,-0.1803,-0.1449,-0.1087,-0.0901,-0.0343,-0.0505,-0.0162,-0.0141,-0.018,0.0015,-0.0527,-0.0378,-0.038,-0.0381,-0.0383,-0.0384,0,-0.0685,-0.072,-0.0773,-0.0857,-0.0917,-0.099,-0.1185,-0.1283,-0.1458,-0.1607,-0.1702,-0.1417,-0.0994,-0.06,0.0102,0.0431,0.0459,0.0579,0.0606,0.0651,0.0119,0.0217,0.0601,0.0601,0.0601,0.0601,0.06,0.06,-0.0702,-0.0752,-0.0774,-0.0837,-0.0875,-0.0969,-0.1058,-0.1172,-0.1278,-0.1347,-0.1292,-0.1269,-0.0677,0.0319,0.1026,0.1112,0.1299,0.1284,0.1332,0.0994,0.0926,0.0861,0.0974,0.1511,0.1512,0.1895,0.1899,0.1902]}],[{"header":{"parameterUnit":"m.s-1","parameterCategory":2,"la1":30.2991,"la2":30.254,"lo1":-89.0895,"lo2":-89.0444,"dy":0.0017,"dx":0.0017,"nx":28,"ny":28,"refTime":"2025-07-09T09:00:00:Z","depth":"2","parameterNumber":2,"parameterNumberName":"U-component_of_CURRENTS"},"data":[0,0,0,0,0,0,0,0,0,0,0,0,0,0,0,0,0,0,0,0,0,0,0,0,0,0,0,0,0,0,0,0,0,0,0,0,0,0,0,0,0,0,0,0,0,0,0,0,0,0,0,0,0,0,0,0,0,0,-0.2031,-0.2033,0,-0.2421,-0.2428,-0.2434,-0.2729,-0.2729,-0.273,-0.273,-0.2847,-0.285,-0.2853,0,0,0,0,0,0,0,0,0,0,0,0,0,-0.192,-0.192,-0.2031,-0.2033,-0.2036,-0.242,-0.2428,-0.2436,-0.2729,-0.2729,-0.273,-0.273,-0.2847,-0.285,-0.2853,0,0,0,0,0,0,0,0,0,0,0,0,0,-0.2128,-0.1921,-0.203,-0.221,-0.2228,-0.2419,-0.2428,-0.2438,-0.2729,-0.2729,-0.273,-0.273,-0.2845,-0.285,-0.2854,-0.2868,0,0,-0.2866,-0.2868,0,0,0,0,0,0,0,0,-0.2115,-0.2135,-0.2181,-0.2198,-0.2218,-0.2505,-0.2431,-0.2559,-0.2729,-0.2565,-0.273,-0.2731,-0.269,-0.2708,-0.282,-0.2873,-0.2878,-0.2867,-0.2869,-0.2871,-0.2872,0,0,0,0,0,0,0,-0.21,-0.2121,-0.2211,-0.2183,-0.2206,-0.24,-0.2429,-0.2462,-0.2634,-0.258,-0.2596,-0.2599,-0.2703,-0.2815,-0.2823,-0.288,-0.2867,-0.287,-0.2873,-0.2874,-0.3027,-0.3028,0,0,0,0,0,0,-0.198,-0.2105,-0.2198,-0.222,-0.2139,-0.2398,-0.2432,-0.2433,-0.2641,-0.2668,-0.2598,-0.2611,-0.2808,-0.2818,-0.2827,-0.2844,-0.2871,-0.2875,-0.2877,-0.3025,-0.3027,-0.3029,0,0,0,0,0,0,-0.1977,-0.1985,-0.2182,-0.2153,-0.2188,-0.2393,-0.2396,-0.244,-0.2596,-0.2653,-0.268,-0.2708,-0.2809,-0.2821,-0.2928,-0.2849,-0.2877,-0.288,-0.3023,-0.3026,-0.3028,-0.2879,0,0,0,0,0,0,-0.1972,-0.1982,-0.198,-0.2143,-0.2184,-0.2307,-0.2394,-0.2446,-0.2581,-0.2604,-0.2754,-0.2766,-0.281,-0.2922,-0.2932,-0.2855,-0.2884,-0.3021,-0.3024,-0.3027,-0.2882,-0.2876,-0.2871,0,0,0,0,0,-0.1967,-0.1976,-0.1977,-0.199,-0.2161,-0.2305,-0.2351,-0.2516,-0.2585,-0.2663,-0.2786,-0.2763,-0.2945,-0.2929,-0.294,-0.2861,-0.302,-0.3024,-0.3027,-0.2885,-0.2878,-0.2871,0,0,0,0,0,0,-0.1962,-0.2008,-0.2015,-0.2043,-0.2149,-0.2346,-0.2415,-0.2532,-0.2709,-0.2721,-0.2815,-0.2836,-0.2892,-0.2929,-0.2909,-0.2925,-0.2964,-0.297,-0.2852,-0.2846,-0.284,-0.2774,-0.2887,0,0,0,0,0,-0.1929,-0.1937,-0.2021,-0.2049,-0.2073,-0.2247,-0.2336,-0.2442,-0.2588,-0.2676,-0.28,-0.2883,-0.2912,-0.2927,-0.2999,-0.3011,-0.3053,-0.2967,-0.2961,-0.2955,-0.2918,-0.2975,-0.2968,-0.304,-0.304,-0.304,0,0,-0.1932,-0.1956,-0.1964,-0.2045,-0.2132,-0.2186,-0.2313,-0.243,-0.2485,-0.2639,-0.2796,-0.2888,-0.2928,-0.2961,-0.2979,-0.2975,-0.2965,-0.296,-0.2953,-0.2918,-0.2977,-0.297,-0.2963,-0.3043,-0.3042,-0.3042,0,0,-0.1946,-0.1947,-0.1956,-0.2014,-0.2099,-0.2182,-0.2206,-0.2412,-0.2503,-0.2649,-0.2739,-0.2803,-0.2938,-0.2924,-0.2919,-0.2923,-0.2957,-0.2948,-0.2824,-0.288,-0.2872,-0.2866,-0.2922,-0.2922,-0.2913,-0.2913,-0.2913,0,-0.1947,-0.1956,-0.1998,-0.2018,-0.2054,-0.216,-0.2201,-0.2284,-0.2527,-0.2579,-0.267,-0.2867,-0.2886,-0.2837,-0.2829,-0.2888,-0.2963,-0.2827,-0.2864,-0.2859,-0.2855,-0.2914,-0.2916,-0.2906,-0.2907,-0.2908,-0.2908,0,-0.1964,-0.1971,-0.1981,-0.1998,-0.2054,-0.211,-0.2161,-0.2262,-0.238,-0.2482,-0.2575,-0.2678,-0.2778,-0.2764,-0.2778,-0.2733,-0.2813,-0.2868,-0.2857,-0.2837,-0.2904,-0.2907,-0.2896,-0.2899,-0.2901,-0.2903,0,0,-0.1955,-0.1986,-0.1986,-0.1991,-0.2046,-0.2101,-0.2111,-0.2178,-0.2223,-0.2386,-0.2495,-0.2472,-0.2574,-0.2576,-0.2614,-0.2612,-0.2618,-0.2707,-0.2714,-0.2719,-0.2774,-0.2538,-0.2521,-0.2709,-0.2708,-0.2708,-0.2833,0,-0.1959,-0.1982,-0.2,-0.2024,-0.2034,-0.2081,-0.2096,-0.2153,-0.2251,-0.2392,-0.2399,-0.252,-0.2472,-0.2556,-0.2523,-0.2655,-0.2625,-0.258,-0.283,-0.2836,-0.2591,-0.2514,-0.2262,-0.2326,-0.2838,-0.2838,-0.2839,0,-0.1959,-0.1973,-0.1994,-0.2026,-0.2032,-0.2053,-0.2103,-0.214,-0.223,-0.2325,-0.2386,-0.2504,-0.2492,-0.2523,-0.2571,-0.2574,-0.262,-0.2687,-0.2696,-0.2515,-0.2603,-0.2434,-0.2315,-0.2847,-0.2846,-0.2845,-0.2845,0,-0.1933,-0.1966,-0.1981,-0.1991,-0.2035,-0.2045,-0.207,-0.213,-0.2165,-0.2306,-0.2432,-0.2462,-0.2561,-0.2602,-0.2648,-0.267,-0.2761,-0.2831,-0.2636,-0.2625,-0.2465,-0.2435,-0.2827,-0.2827,-0.2827,-0.2826,-0.2826,0,-0.1922,-0.1929,-0.1968,-0.1972,-0.1987,-0.2024,-0.2058,-0.21,-0.2197,-0.226,-0.2391,-0.2473,-0.2596,-0.2671,-0.2693,-0.263,-0.2777,-0.2564,-0.2608,-0.2408,-0.2373,-0.2876,-0.288,-0.2831,-0.283,-0.2829,-0.2828,0,-0.1882,-0.1913,-0.1926,-0.1965,-0.1971,-0.1978,-0.2023,-0.2048,-0.2162,-0.228,-0.2344,-0.2508,-0.2586,-0.2658,-0.2767,-0.2664,-0.267,-0.2605,-0.2335,-0.2335,-0.2508,-0.2505,-0.244,-0.2432,-0.2425,-0.2419,-0.2414,0,-0.1862,-0.1865,-0.1901,-0.1899,-0.191,-0.1927,-0.1928,-0.2004,-0.2037,-0.2264,-0.2315,-0.2473,-0.2511,-0.2539,-0.2421,-0.2377,-0.252,-0.2091,-0.1996,-0.2401,-0.2454,-0.2461,-0.2467,-0.1788,-0.1778,-0.1771,-0.1764,0,-0.181,-0.1828,-0.1838,-0.1838,-0.1835,-0.1841,-0.1859,-0.1875,-0.1996,-0.2105,-0.2225,-0.2301,-0.2308,-0.211,-0.2001,-0.1936,-0.2071,-0.192,-0.2458,-0.1865,-0.1778,-0.1833,-0.1862,-0.1695,-0.1702,-0.1707,-0.1711,-0.1713,-0.176,-0.1756,-0.177,-0.176,-0.1762,-0.1744,-0.1712,-0.176,-0.1796,-0.1937,-0.2046,-0.21,-0.203,-0.1748,-0.1585,-0.1421,-0.1584,-0.1492,-0.1521,-0.1558,-0.1399,-0.1298,-0.1099,-0.1102,-0.1105,-0.1108,-0.111,0,-0.1684,-0.1689,-0.1683,-0.1668,-0.1635,-0.1663,-0.165,-0.1607,-0.161,-0.175,-0.1825,-0.164,-0.144,-0.14,-0.0995,-0.0835,-0.0899,-0.0802,-0.0903,-0.0966,-0.1024,-0.0846,-0.0396,-0.0395,-0.0394,-0.0393,0,0,-0.1641,-0.1614,-0.1612,-0.1538,-0.1522,-0.1432,-0.1398,-0.137,-0.1402,-0.1413,-0.1438,-0.1604,-0.1461,-0.1074,-0.083,-0.0566,-0.0818,-0.0517,-0.1074,-0.1267,-0.1328,-0.1368,-0.1153,0,0,0,0,0]},{"header":{"parameterUnit":"m.s-1","parameterCategory":2,"la1":30.2991,"la2":30.254,"lo1":-89.0895,"lo2":-89.0444,"dy":0.0017,"dx":0.0017,"nx":28,"ny":28,"refTime":"2025-07-09T09:00:00:Z","depth":"2","parameterNumber":3,"parameterNumberName":"V-component_of_CURRENTS"},"data":[0,0,0,0,0,0,0,0,0,0,0,0,0,0,0,0,0,0,0,0,0,0,0,0,0,0,0,0,0,0,0,0,0,0,0,0,0,0,0,0,0,0,0,0,0,0,0,0,0,0,0,0,0,0,0,0,0,0,0.0038,0.0039,0,0.0203,0.0206,0.0209,0.0347,0.0348,0.0348,0.0348,0.0531,0.0535,0.0539,0,0,0,0,0,0,0,0,0,0,0,0,0,-0.0048,-0.0047,0.0038,0.0039,0.004,0.0203,0.0206,0.021,0.0347,0.0348,0.0348,0.0349,0.0529,0.0534,0.054,0,0,0,0,0,0,0,0,0,0,0,0,0,0.0051,-0.0047,0.0038,0.0119,0.0127,0.0202,0.0206,0.0211,0.0347,0.0348,0.0348,0.0349,0.0527,0.0534,0.054,0.057,0,0,0.0561,0.0564,0,0,0,0,0,0,0,0,0.0045,0.0056,0.0106,0.0114,0.0123,0.0245,0.0242,0.0327,0.0347,0.0276,0.0348,0.0349,0.0428,0.0443,0.049,0.0579,0.0586,0.0562,0.0566,0.0569,0.057,0,0,0,0,0,0,0,0.0038,0.005,0.0115,0.0107,0.0117,0.0184,0.02,0.026,0.0356,0.0283,0.029,0.0289,0.0435,0.0483,0.0495,0.0589,0.0561,0.0567,0.0572,0.0574,0.0811,0.0813,0,0,0,0,0,0,-0.0013,0.0043,0.011,0.0119,0.0071,0.0184,0.0202,0.0215,0.0356,0.0374,0.0288,0.0295,0.0471,0.0487,0.0502,0.054,0.0568,0.0575,0.0579,0.0809,0.0812,0.0814,0,0,0,0,0,0,-0.0015,-0.0008,0.0103,0.0075,0.0092,0.0183,0.0198,0.0217,0.0263,0.0358,0.0379,0.0311,0.0472,0.0492,0.0585,0.0548,0.0578,0.0584,0.0806,0.081,0.0813,0.0619,0,0,0,0,0,0,-0.0018,-0.0009,-0.0014,0.0071,0.0091,0.0133,0.0196,0.022,0.0256,0.0267,0.0384,0.0403,0.0474,0.0575,0.0592,0.0557,0.0589,0.0803,0.0808,0.0812,0.0622,0.0615,0.0609,0,0,0,0,0,-0.0021,-0.0028,-0.0014,-0.0007,0.0081,0.0131,0.0149,0.0224,0.0256,0.0271,0.0377,0.0399,0.0614,0.0582,0.0601,0.0568,0.0801,0.0807,0.0812,0.0625,0.0616,0.0609,0,0,0,0,0,0,-0.0058,-0.0014,0.0004,0.0013,0.0054,0.0149,0.0168,0.0212,0.0309,0.0323,0.0425,0.0452,0.0532,0.0594,0.0556,0.0663,0.0712,0.0721,0.0564,0.0557,0.055,0.0492,0.0595,0,0,0,0,0,-0.0079,-0.0082,-0.0021,-0.0023,0.0,0.008,0.0109,0.0152,0.0239,0.0283,0.037,0.0475,0.057,0.0595,0.0703,0.0734,0.0767,0.0737,0.073,0.0723,0.07,0.0774,0.0768,0.0831,0.0831,0.0831,0,0,-0.0096,-0.0079,-0.0078,-0.0035,0.0014,0.0039,0.0104,0.0135,0.0151,0.0284,0.0354,0.0464,0.0588,0.0653,0.0688,0.0687,0.0713,0.073,0.0721,0.0702,0.0778,0.077,0.0764,0.0834,0.0834,0.0833,0,0,-0.0138,-0.0113,-0.0123,-0.0088,-0.0048,-0.0004,-0.0006,0.0086,0.0126,0.02,0.0312,0.0391,0.0535,0.0597,0.065,0.0669,0.0701,0.0714,0.0587,0.0658,0.0651,0.0645,0.0602,0.0595,0.0676,0.0676,0.0675,0,-0.0161,-0.016,-0.0119,-0.0109,-0.0088,-0.0032,-0.0022,0.0019,0.0125,0.0158,0.0203,0.0422,0.0501,0.0562,0.0567,0.0638,0.0665,0.0585,0.0638,0.0635,0.0632,0.0591,0.0585,0.0667,0.0668,0.0669,0.067,0,-0.0197,-0.0189,-0.0188,-0.0165,-0.0141,-0.0125,-0.0075,-0.0045,0.0007,0.0063,0.0158,0.0282,0.0399,0.0431,0.0493,0.0515,0.0531,0.0635,0.0627,0.0612,0.0571,0.0568,0.0654,0.0658,0.066,0.0662,0,0,-0.0244,-0.022,-0.0215,-0.0209,-0.0163,-0.0145,-0.0139,-0.01,-0.0088,-0.0001,0.0036,0.0156,0.0217,0.0283,0.0363,0.0388,0.0351,0.0473,0.0481,0.0371,0.0429,0.0467,0.0467,0.0474,0.0474,0.0475,0.0376,0,-0.0275,-0.0295,-0.0259,-0.026,-0.0255,-0.0198,-0.0192,-0.0159,-0.011,-0.0061,0.0018,0.0104,0.0158,0.0205,0.0234,0.0367,0.0349,0.0362,0.0514,0.0515,0.0505,0.0469,0.0572,0.05,0.0373,0.0373,0.0373,0,-0.0304,-0.0318,-0.0339,-0.0308,-0.0294,-0.0287,-0.0262,-0.0243,-0.0188,-0.0143,-0.0086,0.0003,0.0029,0.0113,0.0204,0.0218,0.0286,0.036,0.0361,0.0465,0.0552,0.0522,0.05,0.0368,0.0369,0.0369,0.0369,0,-0.0371,-0.0354,-0.0387,-0.0373,-0.0344,-0.0335,-0.031,-0.0268,-0.0249,-0.0201,-0.0183,-0.0104,-0.0069,0.0045,0.0154,0.0193,0.0265,0.0354,0.0422,0.0421,0.0572,0.0586,0.0409,0.0409,0.041,0.041,0.041,0,-0.0409,-0.0417,-0.0422,-0.043,-0.0452,-0.0396,-0.0392,-0.0365,-0.0312,-0.031,-0.0237,-0.0227,-0.007,-0.0005,0.011,0.0225,0.0223,0.0367,0.0415,0.0504,0.0512,0.0485,0.0495,0.0406,0.0407,0.0408,0.0408,0,-0.0459,-0.0468,-0.0493,-0.0486,-0.0488,-0.0498,-0.0443,-0.0436,-0.0399,-0.0399,-0.0392,-0.0325,-0.0281,-0.0157,0.0006,0.0152,0.0284,0.0329,0.0354,0.0409,0.0379,0.0381,0.0369,0.037,0.037,0.0371,0.0372,0,-0.0486,-0.0519,-0.0551,-0.0577,-0.057,-0.0568,-0.0568,-0.05,-0.0476,-0.0465,-0.0465,-0.0448,-0.0423,-0.0222,0.0028,0.0193,0.0205,0.0423,0.0538,0.0335,0.0382,0.0383,0.0384,0.0614,0.0617,0.0619,0.062,0,-0.0528,-0.055,-0.0574,-0.0643,-0.0662,-0.0671,-0.0646,-0.0641,-0.0583,-0.0578,-0.0581,-0.0568,-0.0417,-0.0134,0.0111,0.0232,0.0413,0.0469,0.0293,0.0625,0.0566,0.0612,0.0606,0.0639,0.0637,0.0635,0.0634,0.0634,-0.0554,-0.0589,-0.0637,-0.0687,-0.0723,-0.0756,-0.0753,-0.0731,-0.0711,-0.0716,-0.0682,-0.0538,-0.0307,0.0124,0.0245,0.0448,0.0456,0.0628,0.0622,0.0614,0.0678,0.0627,0.0713,0.0712,0.071,0.0709,0.0709,0,-0.0582,-0.0619,-0.0671,-0.0729,-0.0766,-0.0781,-0.079,-0.0781,-0.0779,-0.0761,-0.0759,-0.0361,-0.002,0.0211,0.061,0.0756,0.0719,0.0737,0.0753,0.0741,0.0728,0.0796,0.0862,0.0861,0.086,0.0859,0,0,-0.0599,-0.065,-0.0675,-0.0746,-0.0785,-0.0819,-0.083,-0.0849,-0.0798,-0.078,-0.0548,-0.0405,0.0085,0.0369,0.0525,0.0737,0.0626,0.0688,0.0582,0.0564,0.0545,0.0724,0.0822,0,0,0,0,0]}],[{"header":{"parameterUnit":"m.s-1","parameterCategory":2,"la1":30.2991,"la2":30.254,"lo1":-89.0895,"lo2":-89.0444,"dy":0.0017,"dx":0.0017,"nx":28,"ny":28,"refTime":"2025-07-09T09:00:00:Z","depth":"4","parameterNumber":2,"parameterNumberName":"U-component_of_CURRENTS"},"data":[0,0,0,0,0,0,0,0,0,0,0,0,0,0,0,0,0,0,0,0,0,0,0,0,0,0,0,0,0,0,0,0,0,0,0,0,0,0,0,0,0,0,0,0,0,0,0,0,0,0,0,0,0,0,0,0,0,0,-0.1488,-0.1489,0,-0.1541,-0.1542,-0.1542,-0.1544,-0.1543,-0.1543,-0.1542,-0.1568,-0.1569,-0.157,0,0,0,0,0,0,0,0,0,0,0,0,0,-0.1424,-0.1425,-0.1488,-0.1489,-0.149,-0.1541,-0.1542,-0.1542,-0.1544,-0.1543,-0.1543,-0.1542,-0.1567,-0.1569,-0.157,0,0,0,0,0,0,0,0,0,0,0,0,0,-0.146,-0.1425,-0.1488,-0.1498,-0.15,-0.1541,-0.1542,-0.1542,-0.1544,-0.1543,-0.1543,-0.1542,-0.1567,-0.1569,-0.157,-0.1593,0,0,-0.1575,-0.1576,0,0,0,0,0,0,0,0,-0.1458,-0.1462,-0.1496,-0.1498,-0.15,-0.1537,-0.1529,-0.1559,-0.1544,-0.1525,-0.1542,-0.1542,-0.1557,-0.1559,-0.1568,-0.1595,-0.1596,-0.1575,-0.1576,-0.1577,-0.1577,0,0,0,0,0,0,0,-0.1455,-0.146,-0.1507,-0.1497,-0.1499,-0.1513,-0.1517,-0.1535,-0.1542,-0.1527,-0.1527,-0.1537,-0.1557,-0.1566,-0.1569,-0.1596,-0.1575,-0.1577,-0.1578,-0.1578,-0.1663,-0.1664,0,0,0,0,0,0,-0.1452,-0.1458,-0.1505,-0.1509,-0.1479,-0.1515,-0.1519,-0.1524,-0.1542,-0.1545,-0.1538,-0.1537,-0.1564,-0.1567,-0.1569,-0.1626,-0.1577,-0.1578,-0.1579,-0.1662,-0.1664,-0.1665,0,0,0,0,0,0,-0.1451,-0.1456,-0.1503,-0.1486,-0.1494,-0.1517,-0.1522,-0.1525,-0.155,-0.1551,-0.1553,-0.156,-0.1564,-0.1567,-0.159,-0.1626,-0.1579,-0.1581,-0.166,-0.1662,-0.1664,-0.1721,0,0,0,0,0,0,-0.1449,-0.1455,-0.1469,-0.1486,-0.1494,-0.153,-0.1523,-0.1527,-0.1557,-0.1557,-0.1572,-0.1572,-0.1563,-0.1588,-0.1592,-0.1627,-0.1582,-0.1659,-0.1661,-0.1664,-0.1718,-0.1725,-0.1731,0,0,0,0,0,-0.1446,-0.1463,-0.1469,-0.1476,-0.1509,-0.1531,-0.1537,-0.155,-0.1559,-0.1569,-0.1579,-0.1572,-0.1606,-0.159,-0.1595,-0.1631,-0.1658,-0.1661,-0.1663,-0.1715,-0.1723,-0.1731,0,0,0,0,0,0,-0.1445,-0.1466,-0.1473,-0.1496,-0.1515,-0.1532,-0.1554,-0.1565,-0.1584,-0.1591,-0.1587,-0.1589,-0.1616,-0.1619,-0.1602,-0.1662,-0.1632,-0.1636,-0.167,-0.1678,-0.1685,-0.1683,-0.1583,0,0,0,0,0,-0.1452,-0.1469,-0.1488,-0.151,-0.1523,-0.1545,-0.1562,-0.1572,-0.1588,-0.1597,-0.1606,-0.1621,-0.1631,-0.1651,-0.1652,-0.1696,-0.1671,-0.1723,-0.173,-0.1735,-0.1737,-0.1719,-0.1724,-0.1674,-0.1674,-0.1674,0,0,-0.1462,-0.1474,-0.1488,-0.1512,-0.1532,-0.1558,-0.1553,-0.1586,-0.1615,-0.1598,-0.1642,-0.1638,-0.1643,-0.1676,-0.1692,-0.1688,-0.1738,-0.1739,-0.1744,-0.1742,-0.1723,-0.1727,-0.1731,-0.1676,-0.1676,-0.1676,0,0,-0.1479,-0.15,-0.1516,-0.1536,-0.1568,-0.1584,-0.1597,-0.1626,-0.1646,-0.1682,-0.1674,-0.1692,-0.1721,-0.1729,-0.1738,-0.1788,-0.1759,-0.1798,-0.1849,-0.1833,-0.1836,-0.1839,-0.1814,-0.1815,-0.1818,-0.1818,-0.1818,0,-0.149,-0.1511,-0.1526,-0.1547,-0.1572,-0.1598,-0.1626,-0.1655,-0.1688,-0.1705,-0.1701,-0.1736,-0.1745,-0.1782,-0.1803,-0.1804,-0.1782,-0.1818,-0.184,-0.1842,-0.1844,-0.1818,-0.1817,-0.1821,-0.1821,-0.1821,-0.182,0,-0.151,-0.1539,-0.1555,-0.1589,-0.1616,-0.1649,-0.1686,-0.1719,-0.1748,-0.1766,-0.1802,-0.1808,-0.1824,-0.1843,-0.1844,-0.1876,-0.1851,-0.1835,-0.1816,-0.1852,-0.1823,-0.1821,-0.1826,-0.1825,-0.1824,-0.1823,0,0,-0.1501,-0.1558,-0.1566,-0.1589,-0.1644,-0.1665,-0.1724,-0.177,-0.1803,-0.1836,-0.1864,-0.1903,-0.1898,-0.1907,-0.1912,-0.1922,-0.1926,-0.1899,-0.1896,-0.1869,-0.1881,-0.1748,-0.1733,-0.191,-0.191,-0.191,-0.1856,0,-0.1514,-0.1556,-0.1588,-0.1644,-0.1668,-0.1716,-0.1764,-0.1811,-0.1846,-0.1878,-0.19,-0.192,-0.1927,-0.1934,-0.1947,-0.1915,-0.1924,-0.1942,-0.1855,-0.1853,-0.1725,-0.1727,-0.191,-0.1854,-0.1854,-0.1853,-0.1853,0,-0.1516,-0.1544,-0.1597,-0.1663,-0.1681,-0.1724,-0.1796,-0.1842,-0.1896,-0.1918,-0.1944,-0.1944,-0.1966,-0.196,-0.1939,-0.1946,-0.1926,-0.1908,-0.1905,-0.1757,-0.1716,-0.1811,-0.1849,-0.185,-0.185,-0.185,-0.185,0,-0.1481,-0.155,-0.1594,-0.1618,-0.1697,-0.1736,-0.1785,-0.1851,-0.1885,-0.1934,-0.1936,-0.1963,-0.1944,-0.194,-0.1914,-0.192,-0.1873,-0.1867,-0.1733,-0.1724,-0.1836,-0.1834,-0.1856,-0.1856,-0.1857,-0.1857,-0.1857,0,-0.1463,-0.1501,-0.1585,-0.1606,-0.1658,-0.1723,-0.1781,-0.1831,-0.1888,-0.1897,-0.1945,-0.1918,-0.1934,-0.1909,-0.1907,-0.1798,-0.1861,-0.1729,-0.1695,-0.1862,-0.1864,-0.1834,-0.1833,-0.1855,-0.1855,-0.1856,-0.1856,0,-0.1409,-0.147,-0.1522,-0.1613,-0.164,-0.1679,-0.1767,-0.1793,-0.1858,-0.1863,-0.187,-0.1868,-0.1792,-0.1813,-0.1776,-0.174,-0.1692,-0.1653,-0.1829,-0.1807,-0.1557,-0.1559,-0.1468,-0.1462,-0.1458,-0.1454,-0.1451,0,-0.1379,-0.14,-0.1509,-0.1536,-0.1579,-0.1643,-0.1671,-0.1762,-0.1778,-0.1801,-0.1775,-0.1724,-0.1705,-0.1537,-0.158,-0.1548,-0.1546,-0.1536,-0.1552,-0.1538,-0.1515,-0.1525,-0.1533,-0.1444,-0.1443,-0.1442,-0.144,0,-0.1312,-0.1371,-0.1415,-0.1471,-0.1513,-0.1553,-0.1602,-0.1597,-0.1666,-0.1731,-0.1613,-0.1555,-0.1453,-0.1401,-0.1388,-0.1382,-0.1549,-0.1489,-0.1499,-0.1513,-0.1508,-0.1492,-0.1505,-0.1425,-0.1427,-0.1429,-0.143,0,-0.1264,-0.1281,-0.1349,-0.1383,-0.1442,-0.1441,-0.148,-0.1462,-0.148,-0.1511,-0.145,-0.1402,-0.1401,-0.1311,-0.1307,-0.1275,-0.1252,-0.1252,-0.1274,-0.1291,-0.1262,-0.1233,-0.1021,0,0,0,0,0,-0.1203,-0.1209,-0.1245,-0.1285,-0.1344,-0.1369,-0.1421,-0.1457,-0.1504,-0.1378,-0.1418,-0.1318,-0.122,-0.1202,-0.1126,-0.1243,-0.1285,-0.1156,-0.1306,-0.1339,-0.1357,-0.1341,0,0,0,0,0,0,-0.116,-0.1198,-0.121,-0.1195,-0.1199,-0.1239,-0.1262,-0.1293,-0.1237,-0.1278,-0.1214,-0.1259,-0.1174,-0.1229,-0.1098,-0.1102,-0.1177,-0.1154,-0.1151,-0.1329,-0.1345,-0.1359,-0.1349,0,0,0,0,0]},{"header":{"parameterUnit":"m.s-1","parameterCategory":2,"la1":30.2991,"la2":30.254,"lo1":-89.0895,"lo2":-89.0444,"dy":0.0017,"dx":0.0017,"nx":28,"ny":28,"refTime":"2025-07-09T09:00:00:Z","depth":"4","parameterNumber":3,"parameterNumberName":"V-component_of_CURRENTS"},"data":[0,0,0,0,0,0,0,0,0,0,0,0,0,0,0,0,0,0,0,0,0,0,0,0,0,0,0,0,0,0,0,0,0,0,0,0,0,0,0,0,0,0,0,0,0,0,0,0,0,0,0,0,0,0,0,0,0,0,0.0014,0.0015,0,0.0039,0.0039,0.0039,0.0077,0.0078,0.0079,0.008,0.0135,0.0136,0.0136,0,0,0,0,0,0,0,0,0,0,0,0,0,-0.003,-0.0029,0.0014,0.0015,0.0015,0.0039,0.0039,0.0039,0.0077,0.0078,0.0079,0.008,0.0135,0.0135,0.0136,0,0,0,0,0,0,0,0,0,0,0,0,0,-0.0009,-0.0029,0.0014,0.0037,0.004,0.0039,0.0039,0.0039,0.0077,0.0078,0.0079,0.008,0.0134,0.0135,0.0136,0.0121,0,0,0.014,0.0141,0,0,0,0,0,0,0,0,-0.001,-0.0008,0.0034,0.0036,0.0038,0.0057,0.0044,0.0068,0.0077,0.0062,0.008,0.0081,0.0111,0.0114,0.0115,0.0124,0.0126,0.014,0.0141,0.0141,0.0142,0,0,0,0,0,0,0,-0.0012,-0.0009,0.0023,0.0034,0.0037,0.0036,0.0041,0.0048,0.008,0.0063,0.0066,0.007,0.0113,0.0114,0.0117,0.0127,0.014,0.0141,0.0142,0.0142,0.0138,0.0137,0,0,0,0,0,0,-0.0013,-0.001,0.0022,0.0024,0.0017,0.0036,0.0041,0.0049,0.0079,0.0085,0.0069,0.0072,0.0111,0.0115,0.0119,0.0131,0.0141,0.0142,0.0143,0.0139,0.0138,0.0137,0,0,0,0,0,0,-0.0014,-0.001,0.0021,0.0008,0.0012,0.0036,0.0045,0.0049,0.0056,0.0083,0.009,0.0072,0.0112,0.0117,0.0121,0.0132,0.0143,0.0144,0.014,0.0139,0.0137,0.0137,0,0,0,0,0,0,-0.0015,-0.0011,-0.0013,0.0008,0.0013,0.0016,0.0044,0.0049,0.0056,0.006,0.0088,0.0094,0.0113,0.0119,0.0122,0.0134,0.0145,0.0141,0.0139,0.0138,0.0138,0.0136,0.0134,0,0,0,0,0,-0.0017,-0.0022,-0.0013,-0.001,0.0011,0.0016,0.0018,0.0038,0.0055,0.005,0.0068,0.0093,0.0112,0.0119,0.0123,0.0136,0.0142,0.014,0.0138,0.0139,0.0136,0.0134,0,0,0,0,0,0,-0.0042,-0.0018,-0.0008,-0.0005,0.0002,0.0023,0.0021,0.0034,0.0044,0.0051,0.008,0.0086,0.009,0.0104,0.0111,0.0126,0.0132,0.0131,0.0131,0.0129,0.0127,0.014,0.0146,0,0,0,0,0,-0.005,-0.0051,-0.0027,-0.0031,-0.0021,-0.0001,0.0002,0.0015,0.0029,0.0035,0.0054,0.0071,0.0082,0.0099,0.0101,0.0113,0.0166,0.0122,0.012,0.0118,0.0129,0.0221,0.0231,0.0131,0.0131,0.0131,0,0,-0.0063,-0.0051,-0.0052,-0.0037,-0.0025,-0.0021,0.0003,0.0008,0.0011,0.0039,0.0045,0.0056,0.0077,0.0087,0.0092,0.0107,0.0172,0.0116,0.0115,0.0127,0.0221,0.0231,0.0241,0.013,0.013,0.013,0,0,-0.009,-0.0073,-0.008,-0.007,-0.0056,-0.0044,-0.0042,-0.0022,-0.0009,-0.001,0.0015,0.0042,0.0043,0.0082,0.0098,0.0086,0.0146,0.0074,0.0095,0.0185,0.0195,0.0205,0.0284,0.03,0.0089,0.0089,0.0089,0,-0.0105,-0.0105,-0.0085,-0.0084,-0.0077,-0.0053,-0.0054,-0.0042,-0.0028,-0.0014,-0.0012,0.0026,0.005,0.0094,0.0092,0.0089,0.0138,0.0108,0.0187,0.0198,0.0208,0.0287,0.0305,0.0089,0.0089,0.0089,0.0089,0,-0.0132,-0.0129,-0.013,-0.0119,-0.0114,-0.0113,-0.0085,-0.0081,-0.0065,-0.0045,-0.0015,0.0022,0.0052,0.0065,0.0078,0.0153,0.0163,0.0166,0.0204,0.0219,0.0299,0.0319,0.0089,0.0089,0.0089,0.0089,0,0,-0.0163,-0.0152,-0.0151,-0.0149,-0.0127,-0.0127,-0.0116,-0.0095,-0.0085,-0.0054,-0.0028,0.0021,0.005,0.007,0.0102,0.0192,0.031,0.0209,0.0214,0.0305,0.0505,0.0408,0.042,0.0329,0.0332,0.0335,0.0533,0,-0.0187,-0.0205,-0.0184,-0.0193,-0.0194,-0.0161,-0.0156,-0.0133,-0.0111,-0.0086,-0.001,0.0013,0.0049,0.0064,0.0162,0.0244,0.036,0.0256,0.0461,0.0467,0.0394,0.0439,0.0345,0.0548,0.0553,0.0556,0.0558,0,-0.0211,-0.0221,-0.0244,-0.0229,-0.0223,-0.0226,-0.0207,-0.0196,-0.0144,-0.0123,-0.0063,-0.0024,0.0085,0.0115,0.0331,0.0256,0.0391,0.0483,0.0493,0.0419,0.0405,0.0528,0.0594,0.0592,0.0589,0.0586,0.0584,0,-0.0255,-0.0252,-0.0279,-0.0274,-0.0262,-0.0259,-0.0247,-0.0212,-0.02,-0.0145,-0.0134,-0.0013,0.0035,0.0217,0.038,0.0367,0.0623,0.0631,0.0692,0.0687,0.0719,0.0706,0.084,0.084,0.0839,0.0839,0.0838,0,-0.0283,-0.0294,-0.0305,-0.0316,-0.0339,-0.0304,-0.0309,-0.0287,-0.0246,-0.0227,-0.0156,-0.0117,0.0065,0.0208,0.0388,0.0574,0.064,0.0711,0.0737,0.0709,0.0693,0.0733,0.0718,0.0846,0.0844,0.0843,0.0842,0,-0.0317,-0.0326,-0.0354,-0.0359,-0.0364,-0.0379,-0.0358,-0.0355,-0.0317,-0.0291,-0.0276,-0.0179,-0.0007,0.0187,0.0467,0.0556,0.0766,0.0838,0.0788,0.0804,0.0778,0.076,0.0927,0.0925,0.0924,0.0922,0.0921,0,-0.0333,-0.0359,-0.04,-0.0428,-0.0431,-0.0442,-0.045,-0.0405,-0.039,-0.0321,-0.0306,-0.0172,-0.0082,0.0248,0.0431,0.0748,0.0793,0.0882,0.0846,0.0781,0.0791,0.0775,0.076,0.0919,0.0919,0.0918,0.0918,0,-0.0359,-0.0385,-0.0412,-0.0479,-0.0505,-0.0525,-0.0518,-0.051,-0.0447,-0.0418,-0.03,-0.016,0.0015,0.0236,0.0455,0.0691,0.0794,0.0868,0.0874,0.0841,0.0774,0.0781,0.0768,0.0913,0.0914,0.0914,0.0915,0,-0.0378,-0.041,-0.046,-0.051,-0.056,-0.0586,-0.0575,-0.0517,-0.0483,-0.0378,-0.0339,-0.0144,-0.0029,0.0209,0.0425,0.0605,0.0658,0.0704,0.0719,0.0726,0.0574,0.0454,0.0536,0,0,0,0,0,-0.0388,-0.0425,-0.0481,-0.0538,-0.0591,-0.0613,-0.0611,-0.0584,-0.052,-0.043,-0.0369,-0.0185,0.0078,0.0183,0.036,0.0375,0.0657,0.0576,0.0711,0.0886,0.0892,0.0733,0,0,0,0,0,0,-0.0398,-0.0452,-0.0479,-0.0551,-0.0592,-0.0638,-0.0638,-0.0599,-0.0519,-0.0437,-0.0273,-0.0183,0.0095,-0.0003,0.0355,0.04,0.0496,0.0713,0.0715,0.0883,0.0888,0.0892,0.0731,0,0,0,0,0]}]]